Location: Demmingen
(48.6757°N, 10.4375°E)
Time: 02:59:59
(UTC+00:00)

Cosmos 1455 - Pass Details

Date: 23 May 2024
Orbit: 445 x 461 km, 82.5° (Epoch: 13 June)

Event Time Altitude Azimuth Distance (km) Brightness Sun altitude
Rises 02:01:34 0° 330° (NNW) 2,460 5.9 -11.4°
Reaches altitude 10° 02:04:50 10° 296° (WNW) 1,583 4.5 -11.0°
Maximum altitude 02:06:01 12° 275° (W) 1,491 4.2 -10.9°
Enters shadow 02:06:57 11° 259° (W) 1,544 4.1 -10.8°
